Location: Walsall
(52.5862°N, 1.9829°W)
Time: 01:34:14
(UTC+01:00)

X-37B - Pass Details

Date: 26 June 2021
Orbit: 383 x 392 km, 45.0° (Epoch: 01 July)

Event Time Altitude Azimuth Distance (km) Brightness Sun altitude
Rises 00:20:36 0° 254° (WSW) 2,256 4.4 -13.3°
Reaches altitude 10° 00:23:00 10° 236° (SW) 1,402 3.2 -13.3°
Enters shadow 00:24:02 16° 220° (SW) 1,122 2.5 -13.4°
